This demonstration page uses our WeatherBlox Daily Observations layout. Learn more.

Hourly Observations for February 21, 2017

Temp ( °F °C ) Dew Point ( °F °C ) Humidity (%) Winds ( mph kmh ) Pressure ( in mb ) Visibility ( mi km ) Precip ( " mm )
12:15 am 00:15 Clear 43 6 34 1 71 71 undefined N/A 30.33 1027 10 16.09344 0 0
12:35 am 00:35 Clear 43 6 34 1 71 71 undefined N/A 30.36 1028 10 16.09344 0 0
12:55 am 00:55 Clear 41 5 34 1 76 76 undefined N/A 30.36 1028 10 16.09344 0 0
1:15 am 01:15 Clear 39 4 34 1 81 81 undefined N/A 30.36 1028 10 16.09344 0 0
1:35 am 01:35 Clear 41 5 34 1 76 76 undefined N/A 30.36 1028 10 16.09344 0 0
1:55 am 01:55 Clear 41 5 36 2 81 81 undefined N/A 30.36 1028 10 16.09344 0 0
2:15 am 02:15 Clear 45 7 32 0 61 61 undefined N/A 30.36 1028 10 16.09344 0 0
2:35 am 02:35 Clear 43 6 32 0 66 66 undefined N/A 30.36 1028 10 16.09344 0 0
2:55 am 02:55 Clear 45 7 30 -1 57 57 undefined N/A 30.36 1028 10 16.09344 0 0
3:15 am 03:15 Clear 45 7 28 -2 53 53 undefined N/A 30.36 1028 10 16.09344 0 0
3:35 am 03:35 Clear 43 6 28 -2 57 57 undefined N/A 30.36 1028 10 16.09344 0 0
3:55 am 03:55 Clear 43 6 27 -3 53 53 undefined N/A 30.36 1028 10 16.09344 0 0
4:15 am 04:15 Clear 43 6 28 -2 57 57 undefined N/A 30.36 1028 10 16.09344 0 0
4:35 am 04:35 Clear 41 5 28 -2 61 61 undefined N/A 30.36 1028 10 16.09344 0 0
4:55 am 04:55 Clear 43 6 27 -3 53 53 undefined N/A 30.36 1028 10 16.09344 0 0
5:15 am 05:15 Clear 41 5 27 -3 57 57 undefined N/A 30.36 1028 10 16.09344 0 0
5:35 am 05:35 Clear 41 5 27 -3 57 57 undefined N/A 30.36 1028 10 16.09344 0 0
5:55 am 05:55 Clear 41 5 27 -3 57 57 undefined N/A 30.36 1028 10 16.09344 0 0
6:15 am 06:15 Clear 41 5 27 -3 57 57 undefined N/A 30.36 1028 10 16.09344 0 0
6:35 am 06:35 Clear 41 5 28 -2 61 61 undefined N/A 30.36 1028 10 16.09344 0 0
6:55 am 06:55 Sunny 39 4 28 -2 65 65 undefined N/A 30.39 1029 10 16.09344 0 0
7:15 am 07:15 Sunny 41 5 28 -2 61 61 undefined N/A 30.36 1028 10 16.09344 0 0
7:35 am 07:35 Sunny 41 5 28 -2 61 61 undefined N/A 30.36 1028 10 16.09344 0 0
7:55 am 07:55 Sunny 41 5 28 -2 61 61 undefined N/A 30.39 1029 10 16.09344 0 0
8:15 am 08:15 Sunny 41 5 30 -1 66 66 undefined N/A 30.39 1029 10 16.09344 0 0
8:35 am 08:35 Sunny 41 5 30 -1 66 66 undefined N/A 30.36 1028 10 16.09344 0 0
8:55 am 08:55 Sunny 43 6 30 -1 61 61 undefined N/A 30.36 1028 10 16.09344 0 0
9:15 am 09:15 Sunny 43 6 30 -1 61 61 undefined N/A 30.36 1028 10 16.09344 0 0
9:35 am 09:35 Sunny 45 7 30 -1 57 57 undefined N/A 30.36 1028 10 16.09344 0 0
9:55 am 09:55 Sunny 46 8 30 -1 53 53 undefined N/A 30.36 1028 10 16.09344 0 0
10:15 am 10:15 Sunny 46 8 32 0 57 57 undefined N/A 30.36 1028 10 16.09344 0 0
10:35 am 10:35 Sunny 48 9 32 0 54 54 undefined N/A 30.33 1027 10 16.09344 0 0
10:55 am 10:55 Sunny 50 10 32 0 50 50 undefined N/A 30.33 1027 10 16.09344 0 0
11:15 am 11:15 Sunny 50 10 32 0 50 50 undefined N/A 30.33 1027 10 16.09344 0 0
11:35 am 11:35 Sunny 50 10 32 0 50 50 undefined N/A 30.33 1027 10 16.09344 0 0
11:55 am 11:55 Sunny 52 11 32 0 47 47 undefined N/A 30.3 1026 10 16.09344 0 0
12:15 pm 12:15 Sunny 52 11 32 0 47 47 undefined N/A 30.3 1026 10 16.09344 0 0
12:35 pm 12:35 Sunny 52 11 32 0 47 47 undefined N/A 30.27 1025 10 16.09344 0 0
12:55 pm 12:55 Sunny 54 12 32 0 44 44 undefined N/A 30.24 1024 10 16.09344 0 0
1:15 pm 13:15 Sunny 55 13 32 0 41 41 undefined N/A 30.21 1023 10 16.09344 0 0
1:35 pm 13:35 Sunny 55 13 32 0 41 41 undefined N/A 30.21 1023 10 16.09344 0 0
1:55 pm 13:55 Sunny 55 13 32 0 41 41 undefined N/A 30.21 1023 10 16.09344 0 0
2:15 pm 14:15 Sunny 59 15 34 1 39 39 S 14 22 30.18 1022 10 16.09344 0 0
2:35 pm 14:35 Sunny 59 15 34 1 39 39 SSE 12 19 30.18 1022 10 16.09344 0 0
2:55 pm 14:55 Sunny 57 14 34 1 41 41 SSE 12 19 30.15 1021 10 16.09344 0 0
3:15 pm 15:15 Sunny 57 14 34 1 41 41 S 12 19 30.18 1022 10 16.09344 0 0
3:35 pm 15:35 Sunny 57 14 34 1 41 41 SE 14 22 30.15 1021 10 16.09344 0 0
3:55 pm 15:55 Sunny 55 13 34 1 44 44 SE 12 19 30.15 1021 10 16.09344 0 0
4:15 pm 16:15 Sunny 55 13 34 1 44 44 SSE 12 19 30.15 1021 10 16.09344 0 0
4:35 pm 16:35 Sunny 55 13 34 1 44 44 SE 13 20 30.15 1021 10 16.09344 0 0
4:55 pm 16:55 Sunny 55 13 36 2 47 47 SE 12 19 30.15 1021 10 16.09344 0 0
5:15 pm 17:15 Sunny 55 13 36 2 47 47 SE 12 19 30.15 1021 10 16.09344 0 0
5:35 pm 17:35 Sunny 55 13 36 2 47 47 undefined N/A 30.15 1021 10 16.09344 0 0
5:55 pm 17:55 Clear 54 12 37 3 54 54 undefined N/A 30.15 1021 10 16.09344 0 0
6:15 pm 18:15 Clear 54 12 37 3 54 54 undefined N/A 30.15 1021 10 16.09344 0 0
6:35 pm 18:35 Clear 54 12 37 3 54 54 undefined N/A 30.15 1021 10 16.09344 0 0
6:55 pm 18:55 Clear 52 11 37 3 58 58 undefined N/A 30.15 1021 10 16.09344 0 0
7:15 pm 19:15 Clear 52 11 37 3 58 58 undefined N/A 30.15 1021 10 16.09344 0 0
7:35 pm 19:35 Clear 52 11 37 3 58 58 undefined N/A 30.15 1021 10 16.09344 0 0
7:55 pm 19:55 Clear 52 11 37 3 58 58 undefined N/A 30.15 1021 10 16.09344 0 0
8:15 pm 20:15 Clear 50 10 37 3 62 62 undefined N/A 30.18 1022 10 16.09344 0 0
8:35 pm 20:35 Clear 50 10 39 4 67 67 undefined N/A 30.18 1022 10 16.09344 0 0
8:55 pm 20:55 Clear 50 10 39 4 67 67 undefined N/A 30.18 1022 10 16.09344 0 0
9:15 pm 21:15 Clear 50 10 39 4 67 67 undefined N/A 30.18 1022 10 16.09344 0 0
9:35 pm 21:35 Clear 50 10 39 4 67 67 undefined N/A 30.18 1022 10 16.09344 0 0
9:55 pm 21:55 Clear 50 10 39 4 67 67 undefined N/A 30.18 1022 10 16.09344 0 0
10:15 pm 22:15 Clear 48 9 39 4 71 71 undefined N/A 30.15 1021 10 16.09344 0 0
10:35 pm 22:35 Clear 50 10 41 5 71 71 undefined N/A 30.15 1021 10 16.09344 0 0
10:55 pm 22:55 Clear 48 9 41 5 76 76 undefined N/A 30.15 1021 10 16.09344 0 0
11:15 pm 23:15 Clear 48 9 41 5 76 76 undefined N/A 30.15 1021 10 16.09344 0 0
11:35 pm 23:35 Clear 48 9 41 5 76 76 undefined N/A 30.15 1021 10 16.09344 0 0
11:55 pm 23:55 Clear 48 9 41 5 76 76 undefined N/A 30.12 1020 10 16.09344 0 0

Powered by AerisWeather